Flag for Argentina Weather past 2 weeks in Buenos Aires, Argentina

Now
66 °F

Fog.


Feels Like: 66 °F
Forecast: 70 / 82 °F
Wind: 9 mph from Northwest

Location: Buenos Aires Airport

Current Time: Mar 2, 2015 at 8:48:50 AM

Latest Report: Mar 2, 2015 at 8:00 AM


Visibility: 2 mi

Pressure: 29.86 "Hg

Humidity: 94%

Dew point: 64 °F

Location of Buenos AiresLocation

Historic Weather in Buenos Aires — Graph

°F

Buenos Aires temperature yesterday

Maximum temperature yesterday: 75 °F (at 12:00 PM)
Minimum temperature yesterday: 70 °F (at 7:00 AM)
Average temperature yesterday: 72 °F

Past Weeks' High & Low Weather Summary

 TemperatureHumidityPressure
High86 °F (Feb 24, 3:00 PM)94% (Feb 18, 9:00 PM)30.12 "Hg (Feb 18, 9:00 PM)
Low57 °F (Feb 20, 7:00 AM)36% (Feb 19, 6:00 PM)29.62 "Hg (Feb 18, 4:00 PM)
Average74 °F72%29.96 "Hg
* Reported Feb 15 7:00 AM — Mar 2 7:00 AM, Buenos Aires, Weather by CustomWeather, © 2015

Note: Actual official high and low records may vary slightly from our data, if they occured in-between our weather recording intervals... More about our weather records

Advertising

Buenos Aires weather history for previous 24 hours

 ConditionsComfort  
Time TempWeatherWind HumidityBarometerVisibility
7:00 AM
Mon, Mar 2
66 °FPartly sunny.5 mph94%29.83 "Hg4 mi
6:00 AM66 °FSunny.7 mph88%29.83 "Hg10 mi
5:00 AM68 °FClear.7 mph88%29.83 "Hg10 mi
4:00 AM68 °FClear.3 mph88%29.83 "Hg10 mi
3:00 AM68 °FClear.1 mph88%29.86 "Hg10 mi
2:00 AM70 °FClear.5 mph78%29.86 "Hg10 mi
1:00 AM70 °FClear.3 mph83%29.86 "Hg10 mi
12:00 AM70 °FClear.5 mph83%29.86 "Hg10 mi
11:00 PM
Sun, Mar 1
72 °FClear.5 mph78%29.89 "Hg10 mi
10:00 PM72 °FClear.3 mph83%29.86 "Hg10 mi
9:00 PM72 °FClear.5 mph88%29.86 "Hg10 mi
8:00 PM72 °FPartly cloudy.3 mph88%29.86 "HgN/A
7:00 PM73 °FPartly cloudy.7 mph78%29.86 "HgN/A
6:00 PM73 °FLight rain. Broken clouds.16 mph83%29.83 "Hg6 mi
5:00 PM72 °FLight rain. More clouds than sun.10 mph83%29.86 "Hg5 mi
4:00 PM72 °FOvercast.5 mph83%29.89 "HgN/A
3:00 PM72 °FLight rain. Mostly cloudy.3 mph83%29.95 "Hg5 mi
2:00 PM73 °FMore clouds than sun.8 mph78%29.98 "HgN/A
1:00 PM75 °FMore clouds than sun.10 mph74%29.98 "HgN/A
12:00 PM75 °FPartly sunny.10 mph69%29.95 "HgN/A
11:00 AM73 °FPartly sunny.15 mph74%29.95 "HgN/A
10:00 AM73 °FPartly sunny.15 mph74%29.95 "HgN/A
9:00 AM72 °FPartly sunny.9 mph78%29.98 "HgN/A
8:00 AM72 °FSunny.13 mph78%29.98 "Hg10 mi
Weather by CustomWeather, © 2015

See weather overviewHow to use our weather pages